Time,TemperatureF,DewpointF,PressureIn,WindDirection,WindDirectionDegrees,WindSpeedMPH,WindSpeedGustMPH,Humidity,HourlyPrecipIn,Conditions,Clouds,dailyrainin,SoftwareType,DateUTC
2013-04-02 00:02:00,28.0,13.0,30.04,NW,321,2.0,3.0,53,-99.99,,,-99.99,,2013-04-02 05:02:00,
2013-04-02 00:12:00,28.0,13.0,30.04,NW,321,2.0,3.0,53,-99.99,,,-99.99,,2013-04-02 05:12:00,
2013-04-02 00:22:00,28.0,13.0,30.05,West,270,2.0,6.0,53,-99.99,,,-99.99,,2013-04-02 05:22:00,
2013-04-02 00:32:00,28.0,14.0,30.04,ESE,123,0.0,3.0,54,-99.99,,,-99.99,,2013-04-02 05:32:00,
2013-04-02 00:42:00,28.0,14.0,30.04,ESE,123,0.0,3.0,54,-99.99,,,-99.99,,2013-04-02 05:42:00,
2013-04-02 00:52:00,28.0,14.0,30.04,ESE,123,0.0,3.0,54,-99.99,,,-99.99,,2013-04-02 05:52:00,
2013-04-02 01:02:00,27.0,13.0,30.05,West,270,1.0,2.0,54,-99.99,,,-99.99,,2013-04-02 06:02:00,
2013-04-02 01:12:00,27.0,13.0,30.05,West,270,1.0,2.0,54,-99.99,,,-99.99,,2013-04-02 06:12:00,
2013-04-02 01:22:00,27.0,13.0,30.05,WNW,294,1.0,3.0,54,-99.99,,,-99.99,,2013-04-02 06:22:00,
2013-04-02 01:32:00,27.0,13.0,30.06,West,270,3.0,3.0,55,-99.99,,,-99.99,,2013-04-02 06:32:00,
2013-04-02 01:42:00,27.0,13.0,30.06,West,270,3.0,3.0,55,-99.99,,,-99.99,,2013-04-02 06:42:00,
2013-04-02 01:52:00,27.0,13.0,30.06,West,270,0.0,2.0,54,-99.99,,,-99.99,,2013-04-02 06:52:00,
2013-04-02 02:02:00,27.0,13.0,30.06,WNW,290,2.0,3.0,55,-99.99,,,-99.99,,2013-04-02 07:02:00,
2013-04-02 02:12:00,27.0,13.0,30.06,WNW,290,2.0,3.0,55,-99.99,,,-99.99,,2013-04-02 07:12:00,
2013-04-02 02:22:00,27.0,13.0,30.06,WNW,290,2.0,3.0,55,-99.99,,,-99.99,,2013-04-02 07:22:00,
2013-04-02 02:32:00,26.0,12.0,30.06,West,267,0.0,1.0,56,-99.99,,,-99.99,,2013-04-02 07:32:00,
2013-04-02 02:42:00,26.0,12.0,30.06,West,267,0.0,1.0,56,-99.99,,,-99.99,,2013-04-02 07:42:00,
2013-04-02 02:53:00,26.0,12.0,30.06,West,267,0.0,1.0,56,-99.99,,,-99.99,,2013-04-02 07:53:00,
2013-04-02 03:02:00,26.0,12.0,30.06,West,267,0.0,1.0,56,-99.99,,,-99.99,,2013-04-02 08:02:00,
2013-04-02 03:13:00,26.0,12.0,30.06,West,267,0.0,1.0,56,-99.99,,,-99.99,,2013-04-02 08:13:00,
2013-04-02 03:22:00,26.0,12.0,30.06,SSW,208,0.0,1.0,56,-99.99,,,-99.99,,2013-04-02 08:22:00,
2013-04-02 03:32:00,26.0,12.0,30.06,NW,326,0.0,4.0,56,-99.99,,,-99.99,,2013-04-02 08:32:00,
2013-04-02 03:42:00,26.0,12.0,30.06,NW,326,0.0,4.0,56,-99.99,,,-99.99,,2013-04-02 08:42:00,
2013-04-02 03:52:00,26.0,12.0,30.06,NW,326,0.0,4.0,56,-99.99,,,-99.99,,2013-04-02 08:52:00,
2013-04-02 04:02:00,25.0,12.0,30.06,West,270,1.0,2.0,56,-99.99,,,-99.99,,2013-04-02 09:02:00,
2013-04-02 04:12:00,25.0,12.0,30.06,West,270,1.0,2.0,56,-99.99,,,-99.99,,2013-04-02 09:12:00,
2013-04-02 04:22:00,25.0,12.0,30.06,West,270,2.0,3.0,57,-99.99,,,-99.99,,2013-04-02 09:22:00,
2013-04-02 04:32:00,25.0,12.0,30.06,West,270,0.0,3.0,57,-99.99,,,-99.99,,2013-04-02 09:32:00,
2013-04-02 04:43:00,25.0,12.0,30.06,West,270,0.0,3.0,57,-99.99,,,-99.99,,2013-04-02 09:43:00,
2013-04-02 04:52:00,25.0,12.0,30.07,WNW,283,2.0,2.0,58,-99.99,,,-99.99,,2013-04-02 09:52:00,
2013-04-02 05:03:00,24.0,11.0,30.06,SE,135,0.0,2.0,58,-99.99,,,-99.99,,2013-04-02 10:03:00,
2013-04-02 05:13:00,24.0,11.0,30.06,SE,135,0.0,2.0,58,-99.99,,,-99.99,,2013-04-02 10:13:00,
2013-04-02 05:23:00,24.0,11.0,30.06,SE,135,0.0,2.0,58,-99.99,,,-99.99,,2013-04-02 10:23:00,
2013-04-02 05:33:00,24.0,11.0,30.07,West,260,0.0,1.0,58,-99.99,,,-99.99,,2013-04-02 10:33:00,
2013-04-02 05:42:00,24.0,11.0,30.07,West,260,0.0,1.0,58,-99.99,,,-99.99,,2013-04-02 10:42:00,
2013-04-02 05:52:00,24.0,11.0,30.07,West,260,0.0,1.0,58,-99.99,,,-99.99,,2013-04-02 10:52:00,
2013-04-02 06:02:00,24.0,12.0,30.08,SW,218,0.0,3.0,59,-99.99,,,-99.99,,2013-04-02 11:02:00,
2013-04-02 06:12:00,24.0,12.0,30.08,SW,218,0.0,3.0,59,-99.99,,,-99.99,,2013-04-02 11:12:00,
2013-04-02 06:22:00,24.0,12.0,30.08,SW,225,0.0,1.0,59,-99.99,,,-99.99,,2013-04-02 11:22:00,
2013-04-02 06:33:00,24.0,12.0,30.08,SW,225,0.0,1.0,59,-99.99,,,-99.99,,2013-04-02 11:33:00,
2013-04-02 06:43:00,24.0,12.0,30.08,SW,225,0.0,1.0,59,-99.99,,,-99.99,,2013-04-02 11:43:00,
2013-04-02 06:52:00,24.0,12.0,30.08,SW,225,0.0,1.0,59,-99.99,,,-99.99,,2013-04-02 11:52:00,
2013-04-02 07:02:00,23.0,11.0,30.09,SSW,207,0.0,1.0,59,-99.99,,,-99.99,,2013-04-02 12:02:00,
2013-04-02 07:12:00,23.0,11.0,30.09,SSW,207,0.0,1.0,59,-99.99,,,-99.99,,2013-04-02 12:12:00,
2013-04-02 07:22:00,23.0,11.0,30.09,West,270,1.0,2.0,60,-99.99,,,-99.99,,2013-04-02 12:22:00,
2013-04-02 07:32:00,23.0,12.0,30.10,WNW,301,1.0,3.0,61,-99.99,,,-99.99,,2013-04-02 12:32:00,
2013-04-02 07:42:00,23.0,12.0,30.10,WNW,301,1.0,3.0,61,-99.99,,,-99.99,,2013-04-02 12:42:00,
2013-04-02 07:52:00,24.0,12.0,30.10,North,355,1.0,3.0,60,-99.99,,,-99.99,,2013-04-02 12:52:00,
2013-04-02 08:02:00,24.0,12.0,30.11,West,270,0.0,3.0,59,-99.99,,,-99.99,,2013-04-02 13:02:00,
2013-04-02 08:12:00,24.0,12.0,30.11,West,270,0.0,3.0,59,-99.99,,,-99.99,,2013-04-02 13:12:00,
2013-04-02 08:22:00,24.0,12.0,30.11,West,270,0.0,3.0,59,-99.99,,,-99.99,,2013-04-02 13:22:00,
2013-04-02 08:33:00,25.0,12.0,30.11,WSW,238,4.0,4.0,58,-99.99,,,-99.99,,2013-04-02 13:33:00,
2013-04-02 08:42:00,25.0,12.0,30.11,WSW,238,4.0,4.0,58,-99.99,,,-99.99,,2013-04-02 13:42:00,
2013-04-02 08:52:00,25.0,12.0,30.11,WSW,238,4.0,4.0,58,-99.99,,,-99.99,,2013-04-02 13:52:00,
2013-04-02 09:02:00,31.0,15.0,30.12,SW,236,0.0,6.0,52,-99.99,,,-99.99,,2013-04-02 14:02:00,
2013-04-02 09:12:00,31.0,15.0,30.12,SW,236,0.0,6.0,52,-99.99,,,-99.99,,2013-04-02 14:12:00,
2013-04-02 09:23:00,32.0,15.0,30.13,West,272,6.0,6.0,50,-99.99,,,-99.99,,2013-04-02 14:23:00,
2013-04-02 09:32:00,33.0,15.0,30.12,SW,227,2.0,4.0,47,-99.99,,,-99.99,,2013-04-02 14:32:00,
2013-04-02 09:42:00,33.0,15.0,30.12,SW,227,2.0,4.0,47,-99.99,,,-99.99,,2013-04-02 14:42:00,
2013-04-02 09:52:00,36.0,16.0,30.13,North,0,0.0,5.0,44,-99.99,,,-99.99,,2013-04-02 14:52:00,
2013-04-02 10:02:00,38.0,18.0,30.13,NW,315,0.0,2.0,44,-99.99,,,-99.99,,2013-04-02 15:02:00,
2013-04-02 10:11:00,38.0,18.0,30.13,NW,315,0.0,2.0,44,-99.99,,,-99.99,,2013-04-02 15:11:00,
2013-04-02 10:22:00,41.0,19.0,30.13,NW,308,1.0,3.0,41,-99.99,,,-99.99,,2013-04-02 15:22:00,
2013-04-02 10:33:00,43.0,20.0,30.13,SW,225,1.0,3.0,39,-99.99,,,-99.99,,2013-04-02 15:33:00,
2013-04-02 10:43:00,43.0,20.0,30.13,SW,225,1.0,3.0,39,-99.99,,,-99.99,,2013-04-02 15:43:00,
2013-04-02 10:54:00,43.0,20.0,30.13,SW,225,1.0,3.0,39,-99.99,,,-99.99,,2013-04-02 15:54:00,
2013-04-02 11:04:00,44.0,18.0,30.13,WNW,283,1.0,4.0,35,-99.99,,,-99.99,,2013-04-02 16:04:00,
2013-04-02 11:13:00,44.0,18.0,30.13,WNW,283,1.0,4.0,35,-99.99,,,-99.99,,2013-04-02 16:13:00,
2013-04-02 11:24:00,45.0,18.0,30.13,NNE,13,1.0,5.0,33,-99.99,,,-99.99,,2013-04-02 16:24:00,
2013-04-02 11:35:00,45.0,18.0,30.14,NW,315,1.0,5.0,33,-99.99,,,-99.99,,2013-04-02 16:35:00,
2013-04-02 11:43:00,45.0,18.0,30.14,NW,315,1.0,5.0,33,-99.99,,,-99.99,,2013-04-02 16:43:00,
2013-04-02 11:52:00,46.0,18.0,30.14,West,272,2.0,5.0,32,-99.99,,,-99.99,,2013-04-02 16:52:00,
2013-04-02 12:05:00,47.0,18.0,30.13,WSW,252,2.0,6.0,31,-99.99,,,-99.99,,2013-04-02 17:05:00,
2013-04-02 12:13:00,47.0,18.0,30.13,WSW,252,2.0,6.0,31,-99.99,,,-99.99,,2013-04-02 17:13:00,
2013-04-02 12:24:00,47.0,18.0,30.13,WSW,252,2.0,6.0,31,-99.99,,,-99.99,,2013-04-02 17:24:00,
2013-04-02 12:34:00,47.0,18.0,30.13,West,270,6.0,8.0,31,-99.99,,,-99.99,,2013-04-02 17:34:00,
2013-04-02 12:43:00,47.0,18.0,30.13,West,270,6.0,8.0,31,-99.99,,,-99.99,,2013-04-02 17:43:00,
2013-04-02 12:55:00,47.0,18.0,30.13,West,270,6.0,8.0,31,-99.99,,,-99.99,,2013-04-02 17:55:00,
2013-04-02 13:03:00,47.0,18.0,30.13,NW,308,2.0,8.0,31,-99.99,,,-99.99,,2013-04-02 18:03:00,
2013-04-02 13:12:00,47.0,18.0,30.13,NW,308,2.0,8.0,31,-99.99,,,-99.99,,2013-04-02 18:12:00,
2013-04-02 13:23:00,46.0,17.0,30.13,NNW,346,4.0,9.0,31,-99.99,,,-99.99,,2013-04-02 18:23:00,
2013-04-02 13:34:00,47.0,19.0,30.13,NNW,330,2.0,3.0,32,-99.99,,,-99.99,,2013-04-02 18:34:00,
2013-04-02 13:43:00,47.0,19.0,30.13,NNW,330,2.0,3.0,32,-99.99,,,-99.99,,2013-04-02 18:43:00,
2013-04-02 13:54:00,46.0,17.0,30.13,North,352,3.0,7.0,31,-99.99,,,-99.99,,2013-04-02 18:54:00,
2013-04-02 14:03:00,46.0,16.0,30.14,NW,320,4.0,10.0,30,-99.99,,,-99.99,,2013-04-02 19:03:00,
2013-04-02 14:13:00,46.0,16.0,30.14,NW,320,4.0,10.0,30,-99.99,,,-99.99,,2013-04-02 19:13:00,
2013-04-02 14:23:00,46.0,16.0,30.13,East,92,1.0,7.0,30,-99.99,,,-99.99,,2013-04-02 19:23:00,
2013-04-02 14:33:00,45.0,16.0,30.13,WSW,258,5.0,8.0,31,-99.99,,,-99.99,,2013-04-02 19:33:00,
2013-04-02 14:45:00,45.0,16.0,30.13,WSW,258,5.0,8.0,31,-99.99,,,-99.99,,2013-04-02 19:45:00,
2013-04-02 14:53:00,45.0,16.0,30.13,WSW,258,5.0,8.0,31,-99.99,,,-99.99,,2013-04-02 19:53:00,
2013-04-02 15:03:00,45.0,15.0,30.13,NW,315,5.0,6.0,29,-99.99,,,-99.99,,2013-04-02 20:03:00,
2013-04-02 15:13:00,45.0,15.0,30.13,NW,315,5.0,6.0,29,-99.99,,,-99.99,,2013-04-02 20:13:00,
2013-04-02 15:22:00,45.0,15.0,30.13,NW,315,5.0,6.0,29,-99.99,,,-99.99,,2013-04-02 20:22:00,
2013-04-02 15:33:00,44.0,15.0,30.13,WNW,294,5.0,8.0,31,-99.99,,,-99.99,,2013-04-02 20:33:00,
2013-04-02 15:44:00,44.0,15.0,30.13,WNW,294,5.0,8.0,31,-99.99,,,-99.99,,2013-04-02 20:44:00,
2013-04-02 15:54:00,44.0,15.0,30.13,WNW,294,5.0,8.0,31,-99.99,,,-99.99,,2013-04-02 20:54:00,
2013-04-02 16:04:00,44.0,15.0,30.13,WNW,294,5.0,8.0,31,-99.99,,,-99.99,,2013-04-02 21:04:00,
2013-04-02 16:13:00,44.0,15.0,30.13,WNW,294,5.0,8.0,31,-99.99,,,-99.99,,2013-04-02 21:13:00,
2013-04-02 16:55:00,42.0,16.0,30.13,NE,45,1.0,8.0,34,-99.99,,,-99.99,,2013-04-02 21:55:00,
2013-04-02 17:04:00,42.0,16.0,30.13,NE,45,1.0,8.0,34,-99.99,,,-99.99,,2013-04-02 22:04:00,
2013-04-02 17:14:00,42.0,16.0,30.13,NE,45,1.0,8.0,34,-99.99,,,-99.99,,2013-04-02 22:14:00,
2013-04-02 17:24:00,42.0,16.0,30.13,NE,45,1.0,8.0,34,-99.99,,,-99.99,,2013-04-02 22:24:00,
2013-04-02 18:03:00,39.0,14.0,30.14,ESE,117,1.0,5.0,35,-99.99,,,-99.99,,2013-04-02 23:03:00,
2013-04-02 18:13:00,39.0,15.0,30.14,NW,308,3.0,6.0,37,-99.99,,,-99.99,,2013-04-02 23:13:00,
2013-04-02 18:23:00,39.0,15.0,30.14,NW,308,3.0,6.0,37,-99.99,,,-99.99,,2013-04-02 23:23:00,
2013-04-02 18:34:00,38.0,15.0,30.14,NNW,335,2.0,9.0,38,-99.99,,,-99.99,,2013-04-02 23:34:00,
2013-04-02 18:42:00,38.0,15.0,30.14,NNW,335,2.0,9.0,38,-99.99,,,-99.99,,2013-04-02 23:42:00,
2013-04-02 18:52:00,38.0,15.0,30.14,NNW,335,2.0,9.0,38,-99.99,,,-99.99,,2013-04-02 23:52:00,
2013-04-02 19:04:00,38.0,15.0,30.14,NNW,335,2.0,9.0,38,-99.99,,,-99.99,,2013-04-03 00:04:00,
2013-04-02 19:13:00,38.0,15.0,30.14,NNW,335,2.0,9.0,38,-99.99,,,-99.99,,2013-04-03 00:13:00,
2013-04-02 19:34:00,36.0,14.0,30.15,WNW,288,0.0,8.0,40,-99.99,,,-99.99,,2013-04-03 00:34:00,
2013-04-02 19:47:00,36.0,14.0,30.15,WNW,288,0.0,8.0,40,-99.99,,,-99.99,,2013-04-03 00:47:00,
2013-04-02 19:55:00,35.0,14.0,30.15,WNW,282,1.0,2.0,41,-99.99,,,-99.99,,2013-04-03 00:55:00,
2013-04-02 20:03:00,35.0,14.0,30.16,West,267,0.0,3.0,42,-99.99,,,-99.99,,2013-04-03 01:03:00,
2013-04-02 20:12:00,35.0,14.0,30.16,West,267,0.0,3.0,42,-99.99,,,-99.99,,2013-04-03 01:12:00,
2013-04-02 20:22:00,34.0,13.0,30.15,SW,225,0.0,4.0,42,-99.99,,,-99.99,,2013-04-03 01:22:00,
2013-04-02 20:33:00,34.0,14.0,30.16,West,270,2.0,2.0,43,-99.99,,,-99.99,,2013-04-03 01:33:00,
2013-04-02 20:42:00,34.0,14.0,30.16,West,270,2.0,2.0,43,-99.99,,,-99.99,,2013-04-03 01:42:00,
2013-04-02 20:52:00,33.0,13.0,30.16,WSW,254,0.0,3.0,44,-99.99,,,-99.99,,2013-04-03 01:52:00,
2013-04-02 21:03:00,33.0,13.0,30.16,WSW,254,0.0,3.0,44,-99.99,,,-99.99,,2013-04-03 02:03:00,
2013-04-02 21:13:00,33.0,13.0,30.16,WSW,254,0.0,3.0,44,-99.99,,,-99.99,,2013-04-03 02:13:00,
2013-04-02 21:23:00,33.0,15.0,30.16,East,87,0.0,3.0,46,-99.99,,,-99.99,,2013-04-03 02:23:00,
2013-04-02 21:34:00,33.0,15.0,30.16,East,87,0.0,3.0,46,-99.99,,,-99.99,,2013-04-03 02:34:00,
2013-04-02 21:43:00,33.0,15.0,30.16,East,87,0.0,3.0,46,-99.99,,,-99.99,,2013-04-03 02:43:00,
2013-04-02 21:52:00,33.0,15.0,30.16,East,87,0.0,3.0,46,-99.99,,,-99.99,,2013-04-03 02:52:00,
2013-04-02 22:38:00,31.0,14.0,30.19,NW,315,0.0,3.0,48,-99.99,,,-99.99,,2013-04-03 03:38:00,
2013-04-02 22:44:00,31.0,14.0,30.19,NW,315,0.0,3.0,48,-99.99,,,-99.99,,2013-04-03 03:44:00,
2013-04-02 22:54:00,31.0,14.0,30.19,NW,315,0.0,3.0,48,-99.99,,,-99.99,,2013-04-03 03:54:00,
2013-04-02 23:03:00,30.0,12.0,30.19,WNW,282,1.0,1.0,47,-99.99,,,-99.99,,2013-04-03 04:03:00,
2013-04-02 23:12:00,30.0,12.0,30.19,WNW,282,1.0,1.0,47,-99.99,,,-99.99,,2013-04-03 04:12:00,
2013-04-02 23:23:00,30.0,12.0,30.19,WNW,282,1.0,1.0,47,-99.99,,,-99.99,,2013-04-03 04:23:00,
2013-04-02 23:33:00,30.0,13.0,30.20,West,274,1.0,1.0,48,-99.99,,,-99.99,,2013-04-03 04:33:00,
2013-04-02 23:42:00,30.0,13.0,30.20,West,274,1.0,1.0,48,-99.99,,,-99.99,,2013-04-03 04:42:00,
2013-04-02 23:53:00,30.0,13.0,30.20,West,274,1.0,1.0,48,-99.99,,,-99.99,,2013-04-03 04:53:00,